Red Oak, IA

7:26 PM CDT on October 21, 2017 (GMT -0500)
Red Oak Municipal

Weather History for KRDK - March, 2013

Change the Weather History Date:

Monday, March 18, 2013

  Actual Average Record
Temperature  
Mean Temperature 32 °F -  
Max Temperature 39 °F 51 °F 80 °F (2012)
Min Temperature 24 °F 30 °F 5 °F (1965)
Degree Days  
Heating Degree Days 34    
Moisture  
Dew Point 23 °F    
Average Humidity 67    
Maximum Humidity 87    
Minimum Humidity 39    
Precipitation  
Precipitation 0.12 in - - ()
Sea Level Pressure  
Sea Level Pressure 29.87 in    
Wind  
Wind Speed 8 mph (WNW)    
Max Wind Speed 29 mph    
Max Gust Speed 37 mph    
Visibility 8 miles    
Events Rain , Snow    
Averages and records for this station are not official NWS values.
T = Trace of Precipitation, MM = Missing Value Source: NWS Daily Summary

Daily Weather History Graph

Daily Weather History Graph

Search for Another Location

Airport or City:

Trip Planner

Search our weather history database for the weather conditions in past years. The results will help you decide how hot, cold, wet, or windy it might be!

Date:

Astronomy

Mar. 18, 2013 Rise Set
Actual Time 7:27 AM CDT 7:31 PM CDT
Civil Twilight 6:59 AM CDT 7:58 PM CDT
Nautical Twilight 6:27 AM CDT 8:30 PM CDT
Astronomical Twilight 5:55 AM CDT 9:03 PM CDT
Moon 11:24 AM CDT (3/18) 1:34 AM CDT (3/18)
Length of Visible Light 12h 58m
Length of Day
12h 04m
Waxing Crescent, 41% of the Moon is Illuminated
Mar 18
Waxing Crescent
Mar 19
First Quarter
Mar 27
Full
Apr 2
Last Quarter
Apr 10
New

Hourly Weather History & Observations

Time (CDT) Temp. Windchill Dew Point Humidity Pressure Visibility Wind Dir Wind Speed Gust Speed Precip Events Conditions
12:15 AM 35.6 °F - 30.2 °F 81% 29.82 in 2.0 mi Calm Calm - N/A   Drizzle
12:35 AM 35.6 °F - 30.2 °F 81% 29.81 in 2.5 mi Calm Calm - N/A   Light Drizzle
12:55 AM 35.6 °F 29.9 °F 30.2 °F 81% 29.78 in 2.0 mi East 6.9 mph - N/A   Overcast
1:15 AM 35.6 °F 32.8 °F 30.2 °F 81% 29.78 in 3.0 mi SE 3.5 mph - N/A   Overcast
1:35 AM 35.6 °F - 30.2 °F 81% 29.79 in 5.0 mi Calm Calm - N/A Rain Rain
1:55 AM 33.8 °F - 30.2 °F 87% 29.78 in 2.0 mi Calm Calm - 0.01 in Snow Light Snow
2:15 AM 33.8 °F - 30.2 °F 87% 29.78 in 1.5 mi Calm Calm - N/A Snow Light Snow
2:35 AM 33.8 °F - 30.2 °F 87% 29.77 in 1.5 mi Calm Calm - N/A Snow Light Snow
2:55 AM 33.8 °F - 30.2 °F 87% 29.78 in 1.2 mi Calm Calm - N/A Snow Light Snow
3:15 AM 33.8 °F 26.4 °F 30.2 °F 87% 29.74 in 1.2 mi SE 9.2 mph - N/A Snow Light Snow
3:35 AM 33.8 °F 28.6 °F 30.2 °F 87% 29.75 in 3.0 mi South 5.8 mph - N/A Rain Light Rain
3:55 AM 33.8 °F 29.6 °F 30.2 °F 87% 29.75 in 3.0 mi South 4.6 mph - N/A   Drizzle
4:15 AM 33.8 °F 30.8 °F 30.2 °F 87% 29.76 in 4.0 mi SSW 3.5 mph - N/A Rain Light Rain
4:35 AM 33.8 °F 29.6 °F 30.2 °F 87% 29.77 in 1.5 mi SW 4.6 mph - N/A Snow Light Snow
4:55 AM 33.8 °F 29.6 °F 30.2 °F 87% 29.76 in 2.5 mi WSW 4.6 mph - N/A Snow Light Snow
5:15 AM 33.8 °F 27.7 °F 30.2 °F 87% 29.76 in 4.0 mi SW 6.9 mph - N/A   Overcast
5:35 AM 33.8 °F 28.6 °F 30.2 °F 87% 29.76 in 3.0 mi SW 5.8 mph - N/A   Overcast
5:55 AM 33.8 °F 28.6 °F 30.2 °F 87% 29.75 in 3.0 mi SW 5.8 mph - N/A   Overcast
6:15 AM 33.8 °F 28.6 °F 30.2 °F 87% 29.75 in 3.0 mi SW 5.8 mph - N/A   Overcast
6:35 AM 33.8 °F 27.7 °F 30.2 °F 87% 29.75 in 3.0 mi WSW 6.9 mph - N/A   Overcast
6:55 AM 33.8 °F 27.7 °F 30.2 °F 87% 29.75 in 4.0 mi WSW 6.9 mph - N/A   Overcast
7:15 AM 33.8 °F 27.7 °F 30.2 °F 87% 29.75 in 4.0 mi WSW 6.9 mph - N/A   Overcast
7:35 AM 33.8 °F 27.0 °F 30.2 °F 87% 29.76 in 5.0 mi West 8.1 mph - N/A   Overcast
7:55 AM 33.8 °F 24.3 °F 30.2 °F 87% 29.78 in 5.0 mi West 13.8 mph 18.4 mph 0.06 in   Scattered Clouds
8:15 AM 33.8 °F 23.9 °F 28.4 °F 81% 29.78 in 10.0 mi WNW 15.0 mph 21.9 mph N/A   Scattered Clouds
8:35 AM 33.8 °F 23.2 °F 28.4 °F 81% 29.79 in 10.0 mi WNW 17.3 mph 25.3 mph 0.01 in   Clear
8:55 AM 33.8 °F 22.8 °F 26.6 °F 75% 29.80 in 10.0 mi NW 18.4 mph 24.2 mph 0.01 in   Clear
9:15 AM 33.8 °F 23.2 °F 23.0 °F 65% 29.81 in 10.0 mi NW 17.3 mph 28.8 mph 0.01 in   Clear
9:35 AM 33.8 °F 23.5 °F 23.0 °F 65% 29.82 in 10.0 mi NW 16.1 mph 24.2 mph 0.01 in   Clear
9:55 AM 33.8 °F 23.5 °F 23.0 °F 65% 29.83 in 10.0 mi NW 16.1 mph 23.0 mph 0.01 in   Clear
10:15 AM 33.8 °F 23.5 °F 24.8 °F 70% 29.83 in 10.0 mi WNW 16.1 mph 20.7 mph N/A   Clear
10:35 AM 35.6 °F 24.5 °F 21.2 °F 56% 29.84 in 10.0 mi NW 20.7 mph 33.4 mph N/A   Clear
10:55 AM 35.6 °F 25.2 °F 23.0 °F 60% 29.85 in 10.0 mi NW 18.4 mph 31.1 mph N/A   Clear
11:15 AM 35.6 °F 24.0 °F 24.8 °F 65% 29.86 in 10.0 mi WNW 23.0 mph 31.1 mph 0.01 in   Clear
11:35 AM 37.4 °F 28.2 °F 24.8 °F 60% 29.85 in 10.0 mi NW 16.1 mph 25.3 mph 0.01 in   Clear
11:55 AM 37.4 °F 26.1 °F 26.6 °F 65% 29.85 in 10.0 mi NW 24.2 mph 32.2 mph 0.03 in   Clear
12:15 PM 37.4 °F 27.2 °F 26.6 °F 65% 29.86 in 10.0 mi NW 19.6 mph 26.5 mph N/A   Scattered Clouds
12:35 PM 37.4 °F 28.2 °F 26.6 °F 65% 29.86 in 10.0 mi NW 16.1 mph 23.0 mph N/A   Mostly Cloudy
12:55 PM 35.6 °F 26.6 °F 24.8 °F 65% 29.87 in 10.0 mi NNW 13.8 mph 25.3 mph N/A   Mostly Cloudy
1:15 PM 39.2 °F 30.5 °F 24.8 °F 56% 29.88 in 10.0 mi WNW 16.1 mph 25.3 mph N/A   Scattered Clouds
1:35 PM 37.4 °F 25.6 °F 19.4 °F 48% 29.89 in 10.0 mi NW 26.5 mph 36.8 mph N/A   Scattered Clouds
1:55 PM 39.2 °F 28.3 °F 19.4 °F 45% 29.89 in 10.0 mi NW 25.3 mph 36.8 mph N/A   Clear
2:15 PM 37.4 °F 26.1 °F 19.4 °F 48% 29.90 in 10.0 mi NW 24.2 mph 35.7 mph N/A   Clear
2:35 PM 37.4 °F 26.4 °F 17.6 °F 45% 29.90 in 10.0 mi NW 23.0 mph 33.4 mph N/A   Scattered Clouds
2:55 PM 39.2 °F 29.0 °F 19.4 °F 45% 29.90 in 10.0 mi WNW 21.9 mph 28.8 mph N/A   Scattered Clouds
3:15 PM 39.2 °F 28.7 °F 17.6 °F 42% 29.90 in 10.0 mi NW 23.0 mph 34.5 mph N/A   Scattered Clouds
3:35 PM 39.2 °F 28.3 °F 15.8 °F 39% 29.91 in 10.0 mi WNW 25.3 mph 31.1 mph N/A   Scattered Clouds
3:55 PM 39.2 °F 27.6 °F 15.8 °F 39% 29.91 in 10.0 mi NW 28.8 mph 35.7 mph N/A   Scattered Clouds
4:15 PM 37.4 °F 25.9 °F 15.8 °F 41% 29.92 in 10.0 mi NW 25.3 mph 34.5 mph N/A   Clear
4:35 PM 37.4 °F 27.8 °F 15.8 °F 41% 29.93 in 10.0 mi NW 17.3 mph 29.9 mph N/A   Scattered Clouds
4:55 PM 37.4 °F 27.2 °F 15.8 °F 41% 29.93 in 10.0 mi NW 19.6 mph 25.3 mph N/A   Clear
5:15 PM 37.4 °F 27.5 °F 15.8 °F 41% 29.94 in 10.0 mi NW 18.4 mph 27.6 mph N/A   Clear
5:35 PM 37.4 °F 27.5 °F 15.8 °F 41% 29.95 in 10.0 mi NW 18.4 mph 26.5 mph N/A   Clear
5:55 PM 35.6 °F 25.5 °F 15.8 °F 44% 29.95 in 10.0 mi NW 17.3 mph 26.5 mph N/A   Clear
6:15 PM 35.6 °F 25.9 °F 14.0 °F 41% 29.96 in 10.0 mi NW 16.1 mph 25.3 mph N/A   Clear
6:35 PM 35.6 °F 27.1 °F 15.8 °F 44% 29.96 in 10.0 mi NW 12.7 mph 19.6 mph N/A   Clear
6:55 PM 33.8 °F 25.3 °F 15.8 °F 48% 29.98 in 10.0 mi NW 11.5 mph 20.7 mph N/A   Clear
7:15 PM 33.8 °F 25.3 °F 15.8 °F 48% 29.98 in 10.0 mi NW 11.5 mph - N/A   Clear
7:35 PM 32.0 °F 24.2 °F 15.8 °F 51% 29.99 in 10.0 mi NW 9.2 mph - N/A   Clear
7:55 PM 30.2 °F 24.3 °F 17.6 °F 60% 29.99 in 10.0 mi NW 5.8 mph - N/A   Clear
8:15 PM 30.2 °F 24.3 °F 17.6 °F 60% 30.00 in 10.0 mi WNW 5.8 mph - N/A   Clear
8:35 PM 28.4 °F 24.6 °F 17.6 °F 64% 30.00 in 10.0 mi WNW 3.5 mph - N/A   Clear
8:55 PM 28.4 °F - 17.6 °F 64% 30.01 in 10.0 mi Calm Calm - N/A   Clear
9:15 PM 28.4 °F 24.6 °F 17.6 °F 64% 30.01 in 10.0 mi WNW 3.5 mph - N/A   Clear
9:35 PM 28.4 °F 24.6 °F 17.6 °F 64% 30.01 in 10.0 mi West 3.5 mph - N/A   Clear
9:55 PM 26.6 °F 22.6 °F 15.8 °F 64% 30.01 in 10.0 mi WNW 3.5 mph - N/A   Clear
10:15 PM 26.6 °F - 17.6 °F 69% 30.01 in 10.0 mi Calm Calm - N/A   Clear
10:55 PM 24.8 °F 20.5 °F 17.6 °F 74% 30.03 in 10.0 mi WSW 3.5 mph - N/A   Clear
11:15 PM 24.8 °F - 15.8 °F 69% 30.04 in 10.0 mi Calm Calm - N/A   Clear
11:35 PM 24.8 °F 20.5 °F 15.8 °F 69% 30.04 in 10.0 mi West 3.5 mph - N/A   Clear
11:55 PM 24.8 °F 17.9 °F 15.8 °F 69% 30.04 in 10.0 mi West 5.8 mph - N/A   Clear